カタログに戻る

STARLINK-37075

運用中通信VLEO
NORAD 68255·PAYLOAD·🇺🇸 United States

打ち上げ Mar 17, 2026 から Vandenberg Space Force Base

Loading…

次のパス (今後24時間)

TLE

最新Source: CelesTrak SupGP

元期: Sep 14, 2026, 21:16 UTC

1 68255C 26054Z   26257.88659722 -.00056236  00000+0 -16616-2 0  2574
2 68255  53.1568 128.1066 0001215  81.9415 111.3304 15.34417521    14

AllMySatでSTARLINK-37075をリアルタイム追跡

Download on the App Store